Location: Sternwarte Radebeul
(51.1160°N, 13.6224°E)
Time: 17:20:35
(UTC+01:00)

ISS - Pass Details

Date: 21 January 2020
Orbit: 415 x 422 km, 51.6° (Epoch: 26 February)

Event Time Altitude Azimuth Distance (km) Brightness Sun altitude
Rises 19:05:35 0° 219° (SW) 2,370 0.7 -22.9°
Reaches altitude 10° 19:07:51 10° 207° (SSW) 1,507 -0.6 -23.3°
Enters shadow 19:08:55 17° 195° (SSW) 1,159 -1.4 -23.5°
